This demonstration page uses our WeatherBlox Daily Observations layout. Learn more.

Left ArrowRight Arrow

Hourly Observations for October 27, 2019

Temp ( °F °C ) Dew Point ( °F °C ) Humidity (%) Winds ( mph kmh ) Pressure ( in mb ) Visibility ( mi km ) Precip ( " mm )
12:38 am 00:38 Cloudy with Heavy Rain 72 22.2 69 20.6 91 91 SSW 12 19 29.80 1009 2 3 0.00 0.00
12:47 am 00:47 Cloudy with Light Rain 72 22 70 21 94 94 SSW 12 19 29.80 1009 3 5 0.00 0.00
12:53 am 00:53 Cloudy with Light Rain 71 21.7 69 20.6 94 94 SW 9 15 29.80 1009 6 10 0.00 0.00
1:03 am 01:03 Cloudy with Light Rain 71 21.7 69 20.6 94 94 W 6 9 29.80 1009 6 10 0.01 0.25
1:13 am 01:13 Cloudy with Light Rain 70 21.1 68 20 93 93 WSW 6 9 29.80 1009 6 10 0.01 0.25
1:53 am 01:53 Cloudy 69 20.6 67 19.4 93 93 WSW 9 15 29.82 1010 10 16 0.05 1.27
2:53 am 02:53 Cloudy 68 20 66 18.9 93 93 WSW 5 7 29.84 1010 10 16 0.03 0.76
3:11 am 03:11 Cloudy 68 20 65 18.3 90 90 WNW 7 11 29.83 1010 10 16 0.00 0.00
3:23 am 03:23 Cloudy 67 19.4 63 17.2 87 87 WNW 9 15 29.88 1012 10 16 0.00 0.00
3:53 am 03:53 Cloudy 65 18.3 61 16.1 87 87 WNW 7 11 29.85 1011 10 16 0.00 0.00
4:01 am 04:01 Cloudy 64 17.8 60 15.6 87 87 WNW 7 11 29.88 1012 10 16 0.00 0.00
4:25 am 04:25 Cloudy 63 17.2 59 15 87 87 NW 5 7 29.88 1012 10 16 0.00 0.00
4:53 am 04:53 Cloudy 62 16.7 58 14.4 86 86 NW 6 9 29.87 1012 10 16 0.00 0.00
5:30 am 05:30 Cloudy 62 16.7 57 13.9 84 84 W 3 6 29.91 1013 10 16 0.00 0.00
5:41 am 05:41 Cloudy 61 16.1 57 13.9 87 87 Calm 29.91 1013 10 16 0.00 0.00
5:50 am 05:50 Cloudy 61 16 57 14 88 88 Calm 29.91 1013 10 16 0.00 0.00
5:53 am 05:53 Cloudy 61 16.1 57 13.9 87 87 VRB 3 6 29.89 1012 10 16 0.00 0.00
6:18 am 06:18 Cloudy 60 15.6 56 13.3 86 86 NW 9 15 29.91 1013 10 16 0.00 0.00
6:28 am 06:28 Mostly Cloudy 59 15 55 12.8 87 87 WNW 9 15 29.91 1013 10 16 0.00 0.00
6:53 am 06:53 Clear 58 14.4 55 12.8 90 90 WNW 5 7 29.91 1013 10 16 0.00 0.00
7:53 am 07:53 Sunny 56 13.3 54 12.2 93 93 W 3 6 29.93 1014 10 16 0.00 0.00
8:53 am 08:53 Sunny 57 13.9 54 12.2 90 90 W 6 9 29.95 1014 10 16 0.00 0.00
9:49 am 09:49 Mostly Cloudy 61 16 54 12 77 77 WNW 7 11 30.00 1016 10 16 0.00 0.00
9:53 am 09:53 Partly Cloudy 60 15.6 53 11.7 78 78 NW 6 9 29.97 1015 10 16 0.00 0.00
10:22 am 10:22 Mostly Cloudy 60 15.6 53 11.7 78 78 VRB 6 9 30.00 1016 10 16 0.00 0.00
10:53 am 10:53 Mostly Cloudy 62 16.7 53 11.7 73 73 WNW 7 11 29.97 1015 10 16 0.00 0.00
11:38 am 11:38 Partly Cloudy 64 17.8 53 11.7 68 68 WNW 7 11 30.00 1016 10 16 0.00 0.00
11:53 am 11:53 Mostly Sunny 65 18.3 52 11.1 63 63 NW 9 15 29.98 1015 10 16 0.00 0.00
1:53 pm 13:53 Sunny 68 20 53 11.7 59 59 WNW 10 17 29.97 1015 10 16 0.00 0.00
2:53 pm 14:53 Sunny 69 20.6 53 11.7 57 57 NNW 7 11 29.96 1015 10 16 0.00 0.00
3:53 pm 15:53 Sunny 70 21.1 53 11.7 55 55 WNW 8 13 29.96 1015 10 16 0.00 0.00
4:07 pm 16:07 Sunny 69 20.6 53 11.7 57 57 W 8 13 29.94 1014 10 16 0.00 0.00
4:53 pm 16:53 Sunny 69 20.6 53 11.7 57 57 WNW 8 13 29.97 1015 10 16 0.00 0.00
5:53 pm 17:53 Sunny 68 20 53 11.7 59 59 W 9 15 29.97 1015 10 16 0.00 0.00
6:53 pm 18:53 Clear 64 17.8 54 12.2 70 70 WNW 3 6 29.98 1015 10 16 0.00 0.00
7:53 pm 19:53 Clear 62 16.7 54 12.2 75 75 VRB 5 7 30.00 1016 10 16 0.00 0.00
8:53 pm 20:53 Clear 60 15.6 54 12.2 80 80 WSW 5 7 30.01 1016 10 16 0.00 0.00
9:53 pm 21:53 Clear 59 15 53 11.7 81 81 Calm 30.02 1017 10 16 0.00 0.00
10:53 pm 22:53 Clear 57 13.9 53 11.7 87 87 WSW 5 7 30.02 1017 10 16 0.00 0.00
11:53 pm 23:53 Clear 56 13.3 52 11.1 87 87 Calm 30.01 1016 10 16 0.00 0.00

Powered by AerisWeather